SCP
0 0 0 0 -0 -0 -0 -0 -0 -0 0 0 0 0 0 0 0 0 0 0 0 0 0 0 0 0 0 0 0 0 0 0 0 0 0 0 0 0 0 0 0 0 0
0 0 0 0 -0 -0 0 0 0 -0 0 0 0 0 0 0 0 0 0 0 0 0 0 0 0 -0 0 0 0 0 0 0 0 0 0 0 0 0 0 0 0 0 0
0 0 0 0 0 0 0 0 0 0 0 0 0 0 0 0 0 0 0 0 0 0 0 0 -0 0 0 0 0 0 0 0 0 0 0 0 0 0 0 0 0 0 0
0 0 0 0 0 0 0 0 0 0 0 0 0 0 0 0 0 0 0 0 0 0 0 0 0 0 0 0 0 0 0 0 0 0 0 0 0 0 0 0 0 0 0
0 0 0 0 0 0 0 0 0 0 0 0 0 0 0 0 0 0 0 0 0 0 0 0 0 0 0 0 0 0 0 0 0 0 0 0 0 0 0 0 0 0 0
0 0 0 0 0 0 0 0 0 0 0 0 0 0 0 0 0 0 0 0 0 0 0 0 0 0 0 0 0 0 0 0 0 0 0 0 0 0 0 0 0 0 0
0 0 0 0 0 0 0 0 0 0 0 0 0 0 0 0 0 0 0 0 0 0 0 0 0 0 0 0 0 0 0 0 0 0 0 0 0 0 0 0 0 0 0
0 0 0 0 0 0 0 0 0 0 0 0 0 0 0 0 0 0 0 0 0 0 0 0 0 0 0 0 0 0 0 0 0 0 0 0 0 0 0 0 0 0 0
0 0 0 0 0 0 0 0 0 0 0 0 0 0 0 0 0 0 0 0 0 0 0 0 0 0 0 0 0 0 0 0 -0 -0 0 0 0 0 0 0 0 0 0
0 0 0 0 0 0 0 0 0 0 -0 0 0 0 0 0 0 0 0 0 0 0 0 0 0 0 0 0 0 0 -0 0 -0 0 0 0 0 0 0 0 0 0 0
0 0 0 0 0 0 0 0 0 0 0 0 0 0 0 0 0 0 0 0 0 0 0 0 0 0 0 0 0 0 0 0 0 0 0 -0 0 0 0 0 0 0 0
0 0 0 0 0 0 0 0 0 0 0 0 0 0 0 0 0 0 0 0 0 0 0 0 0 0 0 0 0 0 0 0 0 0 0 0 0 0 0 0 0 0 0
0 0 0 0 0 0 0 0 0 0 0 0 0 0 0 0 0 0 0 0 0 0 0 0 0 0 0 0 0 0 0 0 0 0 0 0 0 0 0 0 0 0 0
0 0 0 0 0 0 0 0 0 0 0 0 0 0 0 0 0 0 0 0 0 0 0 0 0 0 0 0 0 0 0 0 0 0 0 0 0 0 0 0 0 0 0
0 0 0 0 0 0 0 0 0 0 0 0 0 0 0 0 0 0 0 0 0 0 0 0 0 0 0 0 0 0 0 0 0 0 0 0 0 0 0 0 0 0 0
0 0 0 0 0 0 0 0 0 0 0 0 0 0 0 0 0 0 0 0 0 0 0 0 0 0 0 0 0 0 0 0 0 0 0 0 0 0 0 0 0 0 0
0 0 0 0 0 0 0 0 0 0 0 0 0 0 0 0 0 0 0 0 0 0 0 0 0 0 0 0 0 0 0 0 0 0 0 0 0 0 0 0 0 0 0
0 0 0 0 0 0 0 0 0 0 0 0 0 0 0 0 0 0 0 0 0 0 0 0 0 0 0 0 0 0 0 0 0 0 0 0 0 0 0 0 0 0 0
0 0 0 0 0 0 0 0 0 0 0 0 0 0 0 0 0 0 0 0 0 0 0 0 0 0 0 0 0 0 0 0 0 0 0 0 0 0 0 0 0 0 0
0 0 0 0 0 0 0 0 0 0 0 0 0 0 0 0 0 0 0 0 0 0 0 0 0 0 0 0 0 0 0 0 0 0 0 0 0 0 0 0 0 0 0
0 0 0 0 0 0 0 0 0 0 0 0 0 0 0 0 0 0 0 0 0 0 0 0 0 0 0 0 0 0 -0 0 0 0 0 0 0 0 0 0 0 0 0
0 0 0 0 0 0 0 0 0 0 0 0 0 0 0 0 0 0 0 0 0 0 0 0 0 0 0 0 -0 -0 -0 0 -0 0 0 0 0 0 0 0 0 0 0
0 0 0 0 0 0 0 0 0 0 0 0 0 0 0 0 0 0 0 0 0 0 0 0 0 0 -0 -0 -0 -0 0 0 0 0 0 0 0 0 0 0 -0 0 -0
0 0 0 0 0 0 0 0 0 0 0 0 0 0 0 0 0 0 0 0 0 0 0 0 0 0 0 -0 -0 -0 -0 0 0 -0 0 0 0 0 0 -0 0 0 0
0 0 0 0 0 0 0 0 0 0 0 0 0 0 0 0 0 0 0 0 0 0 0 0 0 0 0 0 0 -0 -0 -0 -0 -0 0 0 0 0 0 -0 0 0 0
0 0 0 0 0 0 0 0 0 0 0 0 0 0 0 0 0 0 0 0 0 0 0 0 0 0 0 0 0 0 -0 -0 -0 -0 0 0 0 0 0 0 0 0 0
Wind_Speed_500mb
34 28 22 20 20 19 19 16 16 14 9 7 6 11 9 9 6 1 11 17 23 26 38 39 44 44 39 36 36 38 38 42 35 30 30 32 31 30 30 31 31 30 30
30 28 26 22 23 20 15 13 13 13 13 11 12 16 14 15 13 16 18 17 20 29 33 40 43 41 38 34 34 37 38 44 42 36 36 36 37 36 37 36 35 31 26
31 23 26 23 21 18 13 15 20 28 23 17 17 19 9 21 9 17 18 19 21 28 30 40 40 35 33 34 34 36 39 45 46 43 39 38 38 40 39 38 36 36 32
34 29 30 23 21 19 19 14 17 16 27 21 22 26 33 11 14 18 18 16 19 23 28 37 34 32 31 34 29 36 40 43 43 42 39 38 35 35 35 35 34 33 33
40 40 35 32 34 30 25 25 24 18 22 23 27 25 13 15 15 15 16 12 15 16 26 30 33 33 35 37 33 34 40 40 45 41 36 37 35 33 30 29 28 29 31
44 43 38 36 36 35 30 23 17 21 20 21 23 6 10 15 13 10 3 5 8 16 23 29 31 32 29 36 30 33 36 40 44 38 35 34 33 27 26 27 29 30 31
47 40 41 38 34 31 28 32 31 27 27 24 20 4 9 8 12 10 11 5 11 15 19 25 31 36 32 38 42 41 40 46 49 42 36 34 38 33 32 32 32 35 34
48 41 44 42 30 34 37 38 31 26 21 16 12 12 14 14 10 5 5 8 11 9 12 19 27 30 35 36 41 46 52 47 49 50 39 36 37 38 42 42 41 39 39
53 44 42 37 30 34 36 31 28 24 18 19 15 9 9 14 15 19 15 10 7 6 3 11 14 18 27 33 41 47 50 41 51 53 38 36 39 40 46 47 43 39 36
50 42 38 41 32 34 32 26 21 20 15 9 7 9 11 7 9 10 18 15 7 2 3 8 6 9 20 34 40 43 46 42 50 50 38 42 41 39 44 46 42 36 33
55 44 32 40 35 31 24 19 19 11 16 9 8 6 2 1 4 7 6 12 19 21 18 10 14 13 25 32 35 36 37 43 43 45 43 43 44 38 39 44 42 42 36
58 44 36 31 32 24 18 19 20 21 12 10 5 3 2 4 5 7 8 6 9 13 19 23 17 17 28 30 29 31 24 34 43 43 39 44 33 32 36 39 35 41 44
57 46 43 34 26 34 29 26 20 16 13 7 4 2 2 5 8 8 8 9 7 3 10 8 22 30 31 34 31 35 36 38 44 49 56 42 34 34 33 31 37 38 40
55 48 39 36 44 39 30 23 22 18 11 5 6 5 4 6 8 8 8 12 13 9 17 21 30 37 39 41 40 41 44 47 52 59 52 36 30 35 33 27 34 39 42
55 46 41 52 46 35 29 29 23 16 12 13 12 10 5 5 2 1 6 14 18 11 20 21 38 41 43 44 48 53 56 55 53 42 31 29 35 37 38 38 39 39 41
54 43 56 49 41 35 31 25 20 17 14 18 14 9 9 5 3 7 14 18 18 21 20 34 37 39 44 46 51 55 55 48 36 30 33 35 36 36 40 39 37 34 32
51 61 54 46 38 37 32 29 24 22 21 23 19 14 12 12 14 12 15 19 23 24 27 32 37 40 44 49 47 44 45 45 37 29 32 34 38 40 37 33 28 20 22
62 60 51 45 42 39 34 29 28 23 21 19 18 14 15 17 15 14 17 21 25 28 32 36 41 43 44 41 43 46 50 54 39 44 43 34 28 25 30 35 36 37 35
70 59 52 50 48 40 37 34 28 26 20 17 15 12 16 17 16 21 25 25 28 30 32 33 38 39 37 44 47 47 53 56 56 53 52 44 30 37 48 43 31 37 34
71 64 59 53 46 45 42 35 30 25 18 17 16 15 20 23 26 27 28 30 32 34 36 38 36 38 43 46 52 59 60 62 68 57 52 48 38 45 42 43 31 28 31
71 67 59 51 51 47 39 36 28 21 16 19 16 20 26 29 30 30 30 30 31 34 36 37 40 43 50 56 60 63 68 74 66 46 58 49 52 50 51 28 24 27 36
71 64 57 56 51 43 36 27 24 23 21 22 24 27 27 27 29 30 29 29 31 33 38 39 39 42 45 53 63 72 76 76 63 50 54 53 62 57 43 17 22 29 44
67 61 59 54 50 46 34 27 24 26 29 27 27 31 31 33 30 31 28 22 19 24 35 38 41 41 47 57 62 69 81 74 54 42 49 64 64 60 23 29 32 29 40
65 63 60 54 51 46 34 32 28 29 27 27 29 31 31 32 32 34 35 31 25 24 28 33 38 33 42 51 57 67 83 77 59 29 40 65 64 62 11 43 41 40 38
69 65 58 55 50 49 38 31 24 23 24 32 34 33 35 39 40 40 42 41 31 30 23 19 22 29 33 36 55 66 88 93 76 37 46 66 64 67 32 44 50 53 29
70 63 59 52 47 44 29 26 18 19 24 29 36 36 39 40 37 39 40 45 40 35 31 27 19 24 32 36 48 58 77 87 72 38 58 65 58 57 36 49 57 57 31
Wind_Direction_500mb
181 176 167 174 176 170 172 174 180 177 145 146 177 223 211 182 151 71 316 318 315 321 323 337 349 357 0 6 16 23 24 17 12 3 357 358 358 353 353 348 346 344 340
170 167 158 148 162 158 155 175 191 192 204 206 238 213 232 271 300 306 298 306 304 316 330 341 356 358 2 5 20 23 20 16 14 13 13 12 10 7 2 0 355 341 327
178 181 189 187 183 197 209 233 248 229 231 222 212 222 259 293 247 281 300 315 301 321 331 347 2 360 6 12 19 13 12 7 8 7 1 0 2 359 2 5 4 356 347
187 194 201 203 197 208 206 190 208 200 193 219 252 258 270 204 264 282 298 289 312 324 343 356 5 10 8 11 21 7 3 358 1 358 358 355 354 356 1 360 1 359 353
195 203 208 215 219 221 217 227 229 242 245 252 271 266 246 256 253 283 284 304 315 332 353 9 13 14 12 6 9 7 360 1 352 354 354 354 350 360 351 345 348 352 355
203 208 213 216 211 216 227 236 242 244 237 256 276 295 236 245 275 272 239 257 317 348 11 14 28 19 18 19 7 4 1 359 0 358 351 354 356 348 339 344 348 350 355
211 215 215 210 216 225 231 234 238 244 258 275 288 248 265 240 217 142 153 255 328 350 17 24 26 21 14 17 19 10 2 356 359 356 357 359 4 3 354 352 350 352 353
208 213 210 215 222 231 240 245 250 263 264 275 258 212 138 116 109 152 219 321 343 19 26 20 15 11 12 10 8 6 1 359 360 356 349 352 355 355 357 354 351 349 351
210 213 213 216 217 229 240 248 259 258 267 254 252 240 189 216 215 216 244 323 300 350 358 351 347 359 4 2 360 358 356 354 357 355 349 348 347 345 350 351 351 355 353
205 211 219 218 223 232 240 239 242 254 259 249 211 163 182 202 230 239 252 318 42 341 317 311 291 349 13 6 357 357 356 352 351 353 345 339 339 341 345 348 348 352 352
206 210 217 220 226 232 221 232 239 199 156 151 154 140 204 248 290 287 309 79 91 95 75 68 77 57 6 349 346 351 347 339 343 342 339 339 338 339 343 346 344 347 349
198 205 211 211 208 207 196 164 165 153 148 154 174 186 214 268 345 345 340 23 155 86 63 92 92 358 342 337 343 341 340 326 333 336 331 331 334 333 338 340 343 345 345
191 198 202 203 193 164 152 152 148 153 154 160 250 256 70 60 38 47 46 43 18 287 349 358 360 348 341 339 345 336 328 321 327 324 328 323 325 326 331 335 333 331 336
196 202 193 181 160 155 157 155 158 163 162 141 174 157 140 75 101 74 22 15 5 357 353 337 349 344 337 336 330 323 319 319 322 323 325 323 321 324 327 326 324 315 319
189 198 179 161 155 157 157 157 159 150 139 125 142 141 130 117 32 333 340 338 345 347 338 328 335 335 328 322 321 319 319 321 324 321 317 312 316 316 317 319 314 310 311
191 182 165 160 156 154 157 151 144 125 119 114 115 132 139 98 350 330 327 332 334 337 339 333 336 333 323 322 325 325 328 328 327 318 310 308 311 318 316 317 315 315 307
182 169 166 163 158 156 151 148 128 115 108 113 97 93 89 56 14 355 345 339 337 337 334 326 327 327 330 336 339 345 349 350 348 343 334 324 320 319 326 336 335 331 322
170 167 163 161 157 152 144 130 123 121 118 110 96 88 69 47 20 10 2 346 343 342 338 333 336 343 348 354 358 358 2 0 357 356 2 353 348 348 334 328 325 319 320
164 160 162 160 155 148 136 140 140 134 126 112 97 70 48 20 19 9 1 349 342 344 344 346 346 352 357 360 2 358 359 1 360 359 360 358 356 340 332 325 316 314 328
160 159 161 159 152 149 154 150 147 137 126 106 80 48 26 15 9 7 359 354 349 350 352 354 5 7 8 4 0 2 2 355 352 355 355 355 351 352 349 346 339 329 331
157 160 159 155 157 161 156 152 139 127 126 99 64 40 25 19 17 11 8 7 3 5 12 19 17 8 9 9 8 360 351 349 355 354 348 358 353 358 354 349 353 332 326
158 157 156 160 160 149 145 140 130 131 107 81 67 47 41 37 38 35 35 36 31 26 30 26 19 14 15 11 3 358 356 354 355 352 345 352 357 358 356 1 348 325 325
156 156 161 165 154 139 143 129 122 109 94 79 57 41 42 50 47 44 38 37 46 42 36 31 25 24 16 12 3 4 6 3 359 352 346 346 358 1 39 16 352 349 343
160 158 159 156 142 135 135 128 116 100 88 75 55 52 50 51 49 46 39 36 38 37 38 28 24 15 14 9 5 6 8 7 8 5 342 345 358 1 50 18 9 6 356
151 150 148 143 139 134 136 123 102 93 78 62 63 68 62 57 47 44 34 37 39 37 27 15 15 21 14 5 3 4 10 9 6 5 338 351 358 356 13 12 9 9 5
144 145 140 138 139 131 132 111 107 82 76 71 74 72 65 54 40 39 28 28 29 26 11 6 3 359 20 19 6 9 11 13 9 4 348 349 359 3 344 355 10 7 10
Wind_Speed_850mb
34 28 22 20 20 19 19 16 16 14 9 7 6 11 9 9 6 1 11 17 23 26 38 39 44 44 39 36 36 38 38 42 35 30 30 32 31 30 30 31 31 30 30
30 28 26 22 23 20 15 13 13 13 13 11 12 16 14 15 13 16 18 17 20 29 33 40 43 41 38 34 34 37 38 44 42 36 36 36 37 36 37 36 35 31 26
31 23 26 23 21 18 13 15 20 28 23 17 17 19 9 21 9 17 18 19 21 28 30 40 40 35 33 34 34 36 39 45 46 43 39 38 38 40 39 38 36 36 32
34 29 30 23 21 19 19 14 17 16 27 21 22 26 33 11 14 18 18 16 19 23 28 37 34 32 31 34 29 36 40 43 43 42 39 38 35 35 35 35 34 33 33
40 40 35 32 34 30 25 25 24 18 22 23 27 25 13 15 15 15 16 12 15 16 26 30 33 33 35 37 33 34 40 40 45 41 36 37 35 33 30 29 28 29 31
44 43 38 36 36 35 30 23 17 21 20 21 23 6 10 15 13 10 3 5 8 16 23 29 31 32 29 36 30 33 36 40 44 38 35 34 33 27 26 27 29 30 31
47 40 41 38 34 31 28 32 31 27 27 24 20 4 9 8 12 10 11 5 11 15 19 25 31 36 32 38 42 41 40 46 49 42 36 34 38 33 32 32 32 35 34
48 41 44 42 30 34 37 38 31 26 21 16 12 12 14 14 10 5 5 8 11 9 12 19 27 30 35 36 41 46 52 47 49 50 39 36 37 38 42 42 41 39 39
53 44 42 37 30 34 36 31 28 24 18 19 15 9 9 14 15 19 15 10 7 6 3 11 14 18 27 33 41 47 50 41 51 53 38 36 39 40 46 47 43 39 36
50 42 38 41 32 34 32 26 21 20 15 9 7 9 11 7 9 10 18 15 7 2 3 8 6 9 20 34 40 43 46 42 50 50 38 42 41 39 44 46 42 36 33
55 44 32 40 35 31 24 19 19 11 16 9 8 6 2 1 4 7 6 12 19 21 18 10 14 13 25 32 35 36 37 43 43 45 43 43 44 38 39 44 42 42 36
58 44 36 31 32 24 18 19 20 21 12 10 5 3 2 4 5 7 8 6 9 13 19 23 17 17 28 30 29 31 24 34 43 43 39 44 33 32 36 39 35 41 44
57 46 43 34 26 34 29 26 20 16 13 7 4 2 2 5 8 8 8 9 7 3 10 8 22 30 31 34 31 35 36 38 44 49 56 42 34 34 33 31 37 38 40
55 48 39 36 44 39 30 23 22 18 11 5 6 5 4 6 8 8 8 12 13 9 17 21 30 37 39 41 40 41 44 47 52 59 52 36 30 35 33 27 34 39 42
55 46 41 52 46 35 29 29 23 16 12 13 12 10 5 5 2 1 6 14 18 11 20 21 38 41 43 44 48 53 56 55 53 42 31 29 35 37 38 38 39 39 41
54 43 56 49 41 35 31 25 20 17 14 18 14 9 9 5 3 7 14 18 18 21 20 34 37 39 44 46 51 55 55 48 36 30 33 35 36 36 40 39 37 34 32
51 61 54 46 38 37 32 29 24 22 21 23 19 14 12 12 14 12 15 19 23 24 27 32 37 40 44 49 47 44 45 45 37 29 32 34 38 40 37 33 28 20 22
62 60 51 45 42 39 34 29 28 23 21 19 18 14 15 17 15 14 17 21 25 28 32 36 41 43 44 41 43 46 50 54 39 44 43 34 28 25 30 35 36 37 35
70 59 52 50 48 40 37 34 28 26 20 17 15 12 16 17 16 21 25 25 28 30 32 33 38 39 37 44 47 47 53 56 56 53 52 44 30 37 48 43 31 37 34
71 64 59 53 46 45 42 35 30 25 18 17 16 15 20 23 26 27 28 30 32 34 36 38 36 38 43 46 52 59 60 62 68 57 52 48 38 45 42 43 31 28 31
71 67 59 51 51 47 39 36 28 21 16 19 16 20 26 29 30 30 30 30 31 34 36 37 40 43 50 56 60 63 68 74 66 46 58 49 52 50 51 28 24 27 36
71 64 57 56 51 43 36 27 24 23 21 22 24 27 27 27 29 30 29 29 31 33 38 39 39 42 45 53 63 72 76 76 63 50 54 53 62 57 43 17 22 29 44
67 61 59 54 50 46 34 27 24 26 29 27 27 31 31 33 30 31 28 22 19 24 35 38 41 41 47 57 62 69 81 74 54 42 49 64 64 60 23 29 32 29 40
65 63 60 54 51 46 34 32 28 29 27 27 29 31 31 32 32 34 35 31 25 24 28 33 38 33 42 51 57 67 83 77 59 29 40 65 64 62 11 43 41 40 38
69 65 58 55 50 49 38 31 24 23 24 32 34 33 35 39 40 40 42 41 31 30 23 19 22 29 33 36 55 66 88 93 76 37 46 66 64 67 32 44 50 53 29
70 63 59 52 47 44 29 26 18 19 24 29 36 36 39 40 37 39 40 45 40 35 31 27 19 24 32 36 48 58 77 87 72 38 58 65 58 57 36 49 57 57 31
Wind_Direction_850mb
181 176 167 174 176 170 172 174 180 177 145 146 177 223 211 182 151 71 316 318 315 321 323 337 349 357 0 6 16 23 24 17 12 3 357 358 358 353 353 348 346 344 340
170 167 158 148 162 158 155 175 191 192 204 206 238 213 232 271 300 306 298 306 304 316 330 341 356 358 2 5 20 23 20 16 14 13 13 12 10 7 2 0 355 341 327
178 181 189 187 183 197 209 233 248 229 231 222 212 222 259 293 247 281 300 315 301 321 331 347 2 360 6 12 19 13 12 7 8 7 1 0 2 359 2 5 4 356 347
187 194 201 203 197 208 206 190 208 200 193 219 252 258 270 204 264 282 298 289 312 324 343 356 5 10 8 11 21 7 3 358 1 358 358 355 354 356 1 360 1 359 353
195 203 208 215 219 221 217 227 229 242 245 252 271 266 246 256 253 283 284 304 315 332 353 9 13 14 12 6 9 7 360 1 352 354 354 354 350 360 351 345 348 352 355
203 208 213 216 211 216 227 236 242 244 237 256 276 295 236 245 275 272 239 257 317 348 11 14 28 19 18 19 7 4 1 359 0 358 351 354 356 348 339 344 348 350 355
211 215 215 210 216 225 231 234 238 244 258 275 288 248 265 240 217 142 153 255 328 350 17 24 26 21 14 17 19 10 2 356 359 356 357 359 4 3 354 352 350 352 353
208 213 210 215 222 231 240 245 250 263 264 275 258 212 138 116 109 152 219 321 343 19 26 20 15 11 12 10 8 6 1 359 360 356 349 352 355 355 357 354 351 349 351
210 213 213 216 217 229 240 248 259 258 267 254 252 240 189 216 215 216 244 323 300 350 358 351 347 359 4 2 360 358 356 354 357 355 349 348 347 345 350 351 351 355 353
205 211 219 218 223 232 240 239 242 254 259 249 211 163 182 202 230 239 252 318 42 341 317 311 291 349 13 6 357 357 356 352 351 353 345 339 339 341 345 348 348 352 352
206 210 217 220 226 232 221 232 239 199 156 151 154 140 204 248 290 287 309 79 91 95 75 68 77 57 6 349 346 351 347 339 343 342 339 339 338 339 343 346 344 347 349
198 205 211 211 208 207 196 164 165 153 148 154 174 186 214 268 345 345 340 23 155 86 63 92 92 358 342 337 343 341 340 326 333 336 331 331 334 333 338 340 343 345 345
191 198 202 203 193 164 152 152 148 153 154 160 250 256 70 60 38 47 46 43 18 287 349 358 360 348 341 339 345 336 328 321 327 324 328 323 325 326 331 335 333 331 336
196 202 193 181 160 155 157 155 158 163 162 141 174 157 140 75 101 74 22 15 5 357 353 337 349 344 337 336 330 323 319 319 322 323 325 323 321 324 327 326 324 315 319
189 198 179 161 155 157 157 157 159 150 139 125 142 141 130 117 32 333 340 338 345 347 338 328 335 335 328 322 321 319 319 321 324 321 317 312 316 316 317 319 314 310 311
191 182 165 160 156 154 157 151 144 125 119 114 115 132 139 98 350 330 327 332 334 337 339 333 336 333 323 322 325 325 328 328 327 318 310 308 311 318 316 317 315 315 307
182 169 166 163 158 156 151 148 128 115 108 113 97 93 89 56 14 355 345 339 337 337 334 326 327 327 330 336 339 345 349 350 348 343 334 324 320 319 326 336 335 331 322
170 167 163 161 157 152 144 130 123 121 118 110 96 88 69 47 20 10 2 346 343 342 338 333 336 343 348 354 358 358 2 0 357 356 2 353 348 348 334 328 325 319 320
164 160 162 160 155 148 136 140 140 134 126 112 97 70 48 20 19 9 1 349 342 344 344 346 346 352 357 360 2 358 359 1 360 359 360 358 356 340 332 325 316 314 328
160 159 161 159 152 149 154 150 147 137 126 106 80 48 26 15 9 7 359 354 349 350 352 354 5 7 8 4 0 2 2 355 352 355 355 355 351 352 349 346 339 329 331
157 160 159 155 157 161 156 152 139 127 126 99 64 40 25 19 17 11 8 7 3 5 12 19 17 8 9 9 8 360 351 349 355 354 348 358 353 358 354 349 353 332 326
158 157 156 160 160 149 145 140 130 131 107 81 67 47 41 37 38 35 35 36 31 26 30 26 19 14 15 11 3 358 356 354 355 352 345 352 357 358 356 1 348 325 325
156 156 161 165 154 139 143 129 122 109 94 79 57 41 42 50 47 44 38 37 46 42 36 31 25 24 16 12 3 4 6 3 359 352 346 346 358 1 39 16 352 349 343
160 158 159 156 142 135 135 128 116 100 88 75 55 52 50 51 49 46 39 36 38 37 38 28 24 15 14 9 5 6 8 7 8 5 342 345 358 1 50 18 9 6 356
151 150 148 143 139 134 136 123 102 93 78 62 63 68 62 57 47 44 34 37 39 37 27 15 15 21 14 5 3 4 10 9 6 5 338 351 358 356 13 12 9 9 5
144 145 140 138 139 131 132 111 107 82 76 71 74 72 65 54 40 39 28 28 29 26 11 6 3 359 20 19 6 9 11 13 9 4 348 349 359 3 344 355 10 7 10